User: anonymous   Login
Location: Unspecified
(0.0000°N, 0.0000°E)
Time: 00:37:06
(UTC+02:00)
Language:

Cosmos 2279 Rocket - Orbit

View from above orbital plane
View from above orbital plane
View from above satellite
View from above satellite

Ground track
Ground track

The orbit data is extracted from the following two-line orbital elements,

1 23093U 94024B   16182.93674835 +.00000108 +00000-0 +93127-4 0  9994
2 23093 082.9460 015.7275 0008690 268.8633 091.1529 13.77701163582822
Epoch (UTC): 30 June 2016 22:28:55
Eccentricity: 0.0008690
inclination: 82.9460°
perigee height: 965 km
apogee height: 978 km
right ascension of ascending node: 15.7275°
argument of perigee: 268.8633°
revolutions per day: 13.77701163
mean anomaly at epoch: 91.1529°
orbit number at epoch: 58282

The dashed part of the orbit path shows where the satellite is in the earth's shadow,  

DLR